| time (UTC) | temp F | wind direction | speed knots | gust knots | rain 1hr in | rain 24hr in | rain mn in | humidity % | barometer mb |
| 20260507203245 | 54 | 257 | 0.0 | 0.9 | 0.00 | 0.00 | 0.00 | 76 | 1017.4 |
| 20260507202745 | 54 | 257 | 0.0 | 1.7 | 0.00 | 0.00 | 0.00 | 76 | 1017.3 |
| 20260507202245 | 54 | 257 | 0.9 | 1.7 | 0.00 | 0.00 | 0.00 | 75 | 1017.3 |
| 20260507202008 | 54 | 257 | 0.9 | 1.7 | 0.00 | 0.00 | 0.00 | 75 | 1017.2 |
| 20260507201245 | 54 | 269 | 0.0 | 1.7 | 0.00 | 0.00 | 0.00 | 76 | 1017.3 |
| 20260507200745 | 54 | 269 | 0.0 | 1.7 | 0.00 | 0.00 | 0.00 | 76 | 1017.2 |
| 20260507200244 | 54 | 269 | 0.0 | 1.7 | 0.00 | 0.00 | 0.00 | 75 | 1017.1 |
| 20260507195745 | 55 | 271 | 0.0 | 1.7 | 0.00 | 0.00 | 0.00 | 74 | 1017.2 |
| 20260507195246 | 55 | 271 | 0.9 | 1.7 | 0.00 | 0.00 | 0.00 | 75 | 1017.0 |
| 20260507194745 | 55 | 275 | 0.0 | 0.0 | 0.00 | 0.00 | 0.00 | 74 | 1017.0 |
| 20260507194241 | 55 | 275 | 0.0 | 0.0 | 0.00 | 0.00 | 0.00 | 74 | 1017.0 |
| 20260507193738 | 55 | 275 | 0.0 | 0.9 | 0.00 | 0.00 | 0.00 | 73 | 1017.1 |
| 20260507193238 | 56 | 275 | 0.0 | 1.7 | 0.00 | 0.00 | 0.00 | 72 | 1017.0 |
| 20260507192732 | 56 | 275 | 0.0 | 3.5 | 0.00 | 0.00 | 0.00 | 72 | 1017.0 |
| 20260507192231 | 56 | 275 | 0.9 | 3.5 | 0.00 | 0.00 | 0.00 | 71 | 1017.0 |
| 20260507191952 | 56 | 235 | 1.7 | 3.5 | 0.00 | 0.00 | 0.00 | 70 | 1017.1 |
| 20260507191231 | 56 | 259 | 1.7 | 4.3 | 0.00 | 0.00 | 0.00 | 69 | 1017.0 |
| 20260507191004 | 56 | 230 | 1.7 | 4.3 | 0.00 | 0.00 | 0.00 | 68 | 1016.9 |
| 20260507190452 | 57 | 171 | 0.9 | 2.6 | 0.00 | 0.00 | 0.00 | 67 | 1016.9 |
| 20260507185731 | 57 | 216 | 0.9 | 2.6 | 0.00 | 0.00 | 0.00 | 66 | 1016.9 |
| 20260507185231 | 57 | 189 | 0.9 | 2.6 | 0.00 | 0.00 | 0.00 | 65 | 1016.9 |
| 20260507184731 | 57 | 189 | 0.9 | 3.5 | 0.00 | 0.00 | 0.00 | 64 | 1016.8 |
| 20260507184231 | 57 | 189 | 1.7 | 3.5 | 0.00 | 0.00 | 0.00 | 63 | 1016.8 |
| 20260507183951 | 57 | 161 | 0.9 | 2.6 | 0.00 | 0.00 | 0.00 | 63 | 1016.7 |
| 20260507183230 | 57 | 161 | 0.9 | 1.7 | 0.00 | 0.00 | 0.00 | 62 | 1016.7 |
| 20260507182732 | 57 | 161 | 0.9 | 2.6 | 0.00 | 0.00 | 0.00 | 62 | 1016.6 |
| 20260507182232 | 58 | 159 | 0.9 | 2.6 | 0.00 | 0.00 | 0.00 | 62 | 1016.6 |
| 20260507181732 | 58 | 147 | 0.9 | 2.6 | 0.00 | 0.00 | 0.00 | 61 | 1016.5 |
| 20260507181232 | 58 | 155 | 0.9 | 2.6 | 0.00 | 0.00 | 0.00 | 61 | 1016.4 |
| 20260507180732 | 58 | 155 | 0.9 | 3.5 | 0.00 | 0.00 | 0.00 | 60 | 1016.4 |
| 20260507180449 | 58 | 155 | 1.7 | 4.3 | 0.00 | 0.00 | 0.00 | 61 | 1016.4 |
| 20260507175731 | 58 | 154 | 0.0 | 4.3 | 0.00 | 0.00 | 0.00 | 60 | 1016.4 |
| 20260507175231 | 58 | 212 | 0.9 | 3.5 | 0.00 | 0.00 | 0.00 | 60 | 1016.4 |
| 20260507174731 | 58 | 144 | 0.9 | 4.3 | 0.00 | 0.00 | 0.00 | 59 | 1016.5 |
| 20260507174215 | 58 | 217 | 1.7 | 4.3 | 0.00 | 0.00 | 0.00 | 58 | 1016.5 |
| 20260507173711 | 58 | 255 | 0.9 | 5.2 | 0.00 | 0.00 | 0.00 | 59 | 1016.5 |
| 20260507173211 | 58 | 185 | 1.7 | 5.2 | 0.00 | 0.00 | 0.00 | 58 | 1016.4 |
| 20260507172710 | 58 | 258 | 1.7 | 5.2 | 0.00 | 0.00 | 0.00 | 59 | 1016.5 |
| 20260507172430 | 59 | 207 | 1.7 | 5.2 | 0.00 | 0.00 | 0.00 | 57 | 1016.4 |
| 20260507171925 | 59 | 140 | 1.7 | 8.7 | 0.00 | 0.00 | 0.00 | 57 | 1016.5 |
| 20260507171205 | 59 | 293 | 0.9 | 8.7 | 0.00 | 0.00 | 0.00 | 57 | 1016.4 |
| 20260507170706 | 59 | 173 | 1.7 | 5.2 | 0.00 | 0.00 | 0.00 | 57 | 1016.4 |
| 20260507170205 | 59 | 206 | 0.9 | 6.1 | 0.00 | 0.00 | 0.00 | 57 | 1016.5 |
| 20260507165703 | 59 | 176 | 2.6 | 6.1 | 0.00 | 0.00 | 0.00 | 56 | 1016.4 |
| 20260507165204 | 59 | 204 | 1.7 | 6.1 | 0.00 | 0.00 | 0.00 | 56 | 1016.4 |
| 20260507164703 | 59 | 230 | 2.6 | 5.2 | 0.00 | 0.00 | 0.00 | 57 | 1016.5 |
| 20260507164202 | 59 | 161 | 1.7 | 4.3 | 0.00 | 0.00 | 0.00 | 57 | 1016.4 |
| 20260507163703 | 59 | 131 | 0.9 | 5.2 | 0.00 | 0.00 | 0.00 | 56 | 1016.4 |
| 20260507163203 | 60 | 207 | 1.7 | 8.7 | 0.00 | 0.00 | 0.00 | 55 | 1016.4 |
| 20260507162703 | 60 | 149 | 3.5 | 8.7 | 0.00 | 0.00 | 0.00 | 54 | 1016.5 |
| 20260507162203 | 60 | 121 | 3.5 | 10.4 | 0.00 | 0.00 | 0.00 | 53 | 1016.5 |
| 20260507161702 | 60 | 138 | 1.7 | 10.4 | 0.00 | 0.00 | 0.00 | 53 | 1016.5 |
| 20260507161202 | 60 | 103 | 2.6 | 6.1 | 0.00 | 0.00 | 0.00 | 55 | 1016.5 |
| 20260507160703 | 60 | 59 | 1.7 | 5.2 | 0.00 | 0.00 | 0.00 | 56 | 1016.5 |
| 20260507160203 | 60 | 227 | 1.7 | 4.3 | 0.00 | 0.00 | 0.00 | 57 | 1016.5 |
| 20260507155703 | 59 | 189 | 1.7 | 4.3 | 0.00 | 0.00 | 0.00 | 56 | 1016.6 |
| 20260507155203 | 59 | 183 | 1.7 | 7.8 | 0.00 | 0.00 | 0.00 | 57 | 1016.5 |
| 20260507154704 | 59 | 128 | 1.7 | 7.8 | 0.00 | 0.00 | 0.00 | 57 | 1016.5 |
| 20260507154203 | 59 | 117 | 0.9 | 5.2 | 0.00 | 0.00 | 0.00 | 57 | 1016.5 |
| 20260507153704 | 59 | 183 | 1.7 | 6.1 | 0.00 | 0.00 | 0.00 | 57 | 1016.7 |
| 20260507153203 | 59 | 128 | 2.6 | 6.1 | 0.00 | 0.00 | 0.00 | 57 | 1016.7 |
| 20260507152704 | 59 | 151 | 0.9 | 5.2 | 0.00 | 0.00 | 0.00 | 56 | 1016.7 |
| 20260507152203 | 60 | 125 | 0.9 | 3.5 | 0.00 | 0.00 | 0.00 | 56 | 1016.7 |
| 20260507151705 | 60 | 213 | 1.7 | 4.3 | 0.00 | 0.00 | 0.00 | 55 | 1016.8 |
| 20260507151203 | 60 | 224 | 1.7 | 4.3 | 0.00 | 0.00 | 0.00 | 55 | 1016.8 |
| 20260507150704 | 61 | 127 | 0.9 | 7.8 | 0.00 | 0.00 | 0.00 | 56 | 1016.7 |
| 20260507150205 | 61 | 195 | 3.5 | 7.8 | 0.00 | 0.00 | 0.00 | 55 | 1016.8 |
| 20260507145703 | 61 | 147 | 0.9 | 8.7 | 0.00 | 0.00 | 0.00 | 57 | 1016.9 |
| 20260507145204 | 61 | 199 | 1.7 | 8.7 | 0.00 | 0.00 | 0.00 | 55 | 1016.7 |
| 20260507144703 | 61 | 104 | 2.6 | 6.1 | 0.00 | 0.00 | 0.00 | 57 | 1016.8 |
| 20260507144205 | 62 | 138 | 0.9 | 5.2 | 0.00 | 0.00 | 0.00 | 57 | 1016.8 |
| 20260507143704 | 62 | 99 | 1.7 | 10.4 | 0.00 | 0.00 | 0.00 | 54 | 1016.9 |
| 20260507143427 | 62 | 220 | 1.7 | 10.4 | 0.00 | 0.00 | 0.00 | 55 | 1017.0 |
| 20260507142703 | 62 | 180 | 2.6 | 8.7 | 0.00 | 0.00 | 0.00 | 57 | 1017.0 |
| 20260507142203 | 61 | 159 | 1.7 | 5.2 | 0.00 | 0.00 | 0.00 | 57 | 1017.1 |
| 20260507141925 | 61 | 141 | 1.7 | 4.3 | 0.00 | 0.00 | 0.00 | 57 | 1017.1 |
| 20260507141203 | 61 | 89 | 2.6 | 4.3 | 0.00 | 0.00 | 0.00 | 58 | 1017.2 |
| 20260507140926 | 61 | 148 | 1.7 | 7.8 | 0.00 | 0.00 | 0.00 | 57 | 1017.2 |
| 20260507140204 | 61 | 147 | 1.7 | 7.8 | 0.00 | 0.00 | 0.00 | 55 | 1017.3 |
| 20260507135704 | 61 | 235 | 3.5 | 7.8 | 0.00 | 0.00 | 0.00 | 57 | 1017.3 |
| 20260507135203 | 60 | 217 | 3.5 | 6.1 | 0.00 | 0.00 | 0.00 | 59 | 1017.4 |
| 20260507134703 | 60 | 164 | 1.7 | 5.2 | 0.00 | 0.00 | 0.00 | 58 | 1017.4 |
| 20260507134204 | 61 | 148 | 2.6 | 6.1 | 0.00 | 0.00 | 0.00 | 57 | 1017.5 |
| 20260507133703 | 61 | 219 | 0.9 | 6.1 | 0.00 | 0.00 | 0.00 | 59 | 1017.5 |
| 20260507133204 | 60 | 123 | 2.6 | 5.2 | 0.00 | 0.00 | 0.00 | 59 | 1017.5 |
| 20260507132705 | 60 | 189 | 1.7 | 6.1 | 0.00 | 0.00 | 0.00 | 60 | 1017.5 |
| 20260507132204 | 60 | 131 | 1.7 | 6.1 | 0.00 | 0.00 | 0.00 | 61 | 1017.5 |
| 20260507131704 | 60 | 183 | 1.7 | 7.8 | 0.00 | 0.00 | 0.00 | 59 | 1017.6 |
| 20260507131203 | 60 | 75 | 3.5 | 7.8 | 0.00 | 0.00 | 0.00 | 59 | 1017.8 |
| 20260507130703 | 59 | 206 | 2.6 | 6.1 | 0.00 | 0.00 | 0.00 | 61 | 1017.7 |
| 20260507130203 | 59 | 73 | 2.6 | 5.2 | 0.00 | 0.00 | 0.00 | 61 | 1017.8 |
| 20260507125704 | 60 | 94 | 1.7 | 5.2 | 0.00 | 0.00 | 0.00 | 61 | 1017.7 |
| 20260507125204 | 59 | 207 | 2.6 | 5.2 | 0.00 | 0.00 | 0.00 | 62 | 1017.6 |
| 20260507124932 | 59 | 165 | 1.7 | 5.2 | 0.00 | 0.00 | 0.00 | 63 | 1017.7 |
| 20260507124204 | 58 | 97 | 2.6 | 5.2 | 0.00 | 0.00 | 0.00 | 63 | 1017.8 |
| 20260507123704 | 58 | 145 | 2.6 | 6.1 | 0.00 | 0.00 | 0.00 | 63 | 1017.8 |
| 20260507123203 | 58 | 182 | 2.6 | 8.7 | 0.00 | 0.00 | 0.00 | 63 | 1017.8 |
| 20260507122705 | 58 | 117 | 3.5 | 8.7 | 0.00 | 0.00 | 0.00 | 63 | 1017.9 |
| 20260507122204 | 58 | 183 | 3.5 | 8.7 | 0.00 | 0.00 | 0.00 | 63 | 1017.8 |
| 20260507121703 | 58 | 140 | 1.7 | 5.2 | 0.00 | 0.00 | 0.00 | 66 | 1017.9 |
| 20260507121203 | 57 | 219 | 1.7 | 5.2 | 0.00 | 0.00 | 0.00 | 67 | 1017.8 |
| 20260507120936 | 57 | 197 | 1.7 | 5.2 | 0.00 | 0.00 | 0.00 | 67 | 1017.9 |
| 20260507120203 | 56 | 131 | 1.7 | 4.3 | 0.00 | 0.00 | 0.00 | 67 | 1018.0 |
| 20260507115927 | 56 | 97 | 1.7 | 7.8 | 0.00 | 0.00 | 0.00 | 69 | 1018.0 |
| 20260507115203 | 56 | 83 | 1.7 | 7.8 | 0.00 | 0.00 | 0.00 | 69 | 1018.0 |
| 20260507114704 | 55 | 78 | 1.7 | 5.2 | 0.00 | 0.00 | 0.00 | 70 | 1018.0 |
| 20260507114204 | 55 | 224 | 1.7 | 6.1 | 0.00 | 0.00 | 0.00 | 71 | 1018.1 |
| 20260507113704 | 55 | 158 | 1.7 | 8.7 | 0.00 | 0.00 | 0.00 | 73 | 1018.1 |
| 20260507113203 | 54 | 80 | 1.7 | 8.7 | 0.00 | 0.00 | 0.00 | 73 | 1018.2 |
| 20260507112702 | 54 | 144 | 1.7 | 5.2 | 0.00 | 0.00 | 0.00 | 73 | 1018.2 |
| 20260507112202 | 53 | 124 | 1.7 | 6.1 | 0.00 | 0.00 | 0.00 | 73 | 1018.3 |
| 20260507111703 | 53 | 235 | 1.7 | 6.1 | 0.00 | 0.00 | 0.00 | 74 | 1018.3 |
| 20260507111423 | 53 | 109 | 2.6 | 4.3 | 0.00 | 0.00 | 0.00 | 75 | 1018.2 |
| 20260507110702 | 53 | 102 | 1.7 | 4.3 | 0.00 | 0.00 | 0.00 | 76 | 1018.2 |
| 20260507110203 | 52 | 90 | 0.9 | 4.3 | 0.00 | 0.00 | 0.00 | 76 | 1018.2 |
| 20260507105703 | 52 | 207 | 0.9 | 4.3 | 0.00 | 0.00 | 0.00 | 76 | 1018.3 |
| 20260507105204 | 52 | 93 | 1.7 | 5.2 | 0.00 | 0.00 | 0.00 | 78 | 1018.5 |
| 20260507104925 | 52 | 182 | 0.0 | 5.2 | 0.00 | 0.00 | 0.00 | 78 | 1018.5 |
| 20260507104204 | 51 | 144 | 0.9 | 3.5 | 0.00 | 0.00 | 0.00 | 79 | 1018.5 |
| 20260507103703 | 51 | 202 | 2.6 | 3.5 | 0.00 | 0.00 | 0.00 | 80 | 1018.5 |
| 20260507103204 | 51 | 103 | 0.9 | 5.2 | 0.00 | 0.00 | 0.00 | 80 | 1018.6 |
| 20260507102703 | 50 | 99 | 0.9 | 5.2 | 0.00 | 0.00 | 0.00 | 81 | 1018.5 |
| 20260507102435 | 50 | 118 | 1.7 | 4.3 | 0.00 | 0.00 | 0.00 | 82 | 1018.5 |
| 20260507101700 | 50 | 226 | 0.9 | 3.5 | 0.00 | 0.00 | 0.00 | 81 | 1018.5 |
| 20260507101651 | 49 | 135 | 1.7 | 3.5 | 0.00 | 0.00 | 0.00 | 82 | 1018.5 |
| 20260507100659 | 49 | 78 | 1.7 | 3.5 | 0.00 | 0.00 | 0.00 | 82 | 1018.4 |
| 20260507100200 | 49 | 113 | 1.7 | 2.6 | 0.00 | 0.00 | 0.00 | 82 | 1018.4 |
| 20260507095657 | 49 | 134 | 0.9 | 4.3 | 0.00 | 0.00 | 0.00 | 82 | 1018.5 |
| 20260507095157 | 49 | 134 | 1.7 | 4.3 | 0.00 | 0.00 | 0.00 | 82 | 1018.5 |
| 20260507094917 | 49 | 103 | 1.7 | 4.3 | 0.00 | 0.00 | 0.00 | 82 | 1018.5 |
| 20260507094155 | 49 | 120 | 1.7 | 3.5 | 0.00 | 0.00 | 0.00 | 83 | 1018.5 |
| 20260507093654 | 48 | 100 | 1.7 | 3.5 | 0.00 | 0.00 | 0.00 | 83 | 1018.5 |
| 20260507093415 | 48 | 82 | 1.7 | 3.5 | 0.00 | 0.00 | 0.00 | 83 | 1018.6 |
| 20260507092919 | 49 | 172 | 1.7 | 5.2 | 0.00 | 0.00 | 0.00 | 83 | 1018.6 |
| 20260507092152 | 49 | 83 | 2.6 | 5.2 | 0.00 | 0.00 | 0.00 | 83 | 1018.6 |
| 20260507091652 | 49 | 117 | 0.9 | 3.5 | 0.00 | 0.00 | 0.00 | 84 | 1018.5 |
| 20260507091149 | 48 | 144 | 0.9 | 6.1 | 0.00 | 0.00 | 0.00 | 84 | 1018.5 |
| 20260507090646 | 48 | 120 | 1.7 | 6.1 | 0.00 | 0.00 | 0.00 | 84 | 1018.4 |
| 20260507090146 | 48 | 182 | 0.0 | 4.3 | 0.00 | 0.00 | 0.00 | 84 | 1018.4 |
| 20260507085646 | 48 | 133 | 0.9 | 3.5 | 0.00 | 0.00 | 0.00 | 85 | 1018.4 |
| 20260507085145 | 48 | 86 | 0.0 | 3.5 | 0.00 | 0.00 | 0.00 | 86 | 1018.4 |
| 20260507084645 | 48 | 114 | 0.0 | 5.2 | 0.00 | 0.00 | 0.00 | 86 | 1018.4 |
| 20260507084145 | 47 | 113 | 2.6 | 5.2 | 0.00 | 0.00 | 0.00 | 86 | 1018.4 |
| 20260507083646 | 47 | 113 | 0.9 | 4.3 | 0.00 | 0.00 | 0.00 | 86 | 1018.5 |
| 20260507083145 | 47 | 121 | 0.9 | 2.6 | 0.00 | 0.00 | 0.00 | 86 | 1018.4 |
| 20260507082645 | 47 | 97 | 0.9 | 5.2 | 0.00 | 0.00 | 0.00 | 86 | 1018.4 |
| 20260507082144 | 47 | 93 | 1.7 | 5.2 | 0.00 | 0.00 | 0.00 | 86 | 1018.4 |
| 20260507081644 | 47 | 89 | 1.7 | 4.3 | 0.00 | 0.00 | 0.00 | 86 | 1018.5 |
| 20260507081143 | 47 | 87 | 1.7 | 4.3 | 0.00 | 0.00 | 0.00 | 86 | 1018.5 |
| 20260507080644 | 47 | 107 | 1.7 | 4.3 | 0.00 | 0.00 | 0.00 | 86 | 1018.4 |
| 20260507080145 | 47 | 114 | 2.6 | 4.3 | 0.00 | 0.00 | 0.00 | 86 | 1018.4 |
| 20260507075645 | 47 | 124 | 0.9 | 3.5 | 0.00 | 0.00 | 0.00 | 87 | 1018.5 |
| 20260507075141 | 47 | 99 | 1.7 | 6.1 | 0.00 | 0.00 | 0.00 | 87 | 1018.5 |
| 20260507074640 | 46 | 89 | 1.7 | 6.1 | 0.00 | 0.00 | 0.00 | 87 | 1018.4 |
| 20260507074141 | 46 | 125 | 0.9 | 5.2 | 0.00 | 0.00 | 0.00 | 87 | 1018.5 |
| 20260507073641 | 46 | 127 | 0.9 | 5.2 | 0.00 | 0.00 | 0.00 | 87 | 1018.4 |
| 20260507073141 | 46 | 120 | 2.6 | 5.2 | 0.00 | 0.00 | 0.00 | 87 | 1018.4 |
| 20260507072638 | 46 | 131 | 0.9 | 5.2 | 0.00 | 0.00 | 0.00 | 87 | 1018.3 |
| 20260507072402 | 46 | 38 | 0.9 | 6.1 | 0.00 | 0.00 | 0.00 | 88 | 1018.3 |
| 20260507071635 | 46 | 85 | 1.7 | 6.1 | 0.00 | 0.00 | 0.00 | 88 | 1018.3 |
| 20260507071135 | 46 | 92 | 1.7 | 3.5 | 0.00 | 0.00 | 0.00 | 88 | 1018.3 |
| 20260507070635 | 46 | 114 | 0.0 | 4.3 | 0.00 | 0.00 | 0.00 | 88 | 1018.3 |
| 20260507070357 | 46 | 111 | 0.9 | 4.3 | 0.00 | 0.00 | 0.00 | 88 | 1018.3 |
| 20260507065850 | 45 | 111 | 0.0 | 2.6 | 0.00 | 0.00 | 0.00 | 89 | 1018.2 |
| 20260507065133 | 45 | 110 | 1.7 | 4.3 | 0.00 | 0.00 | 0.00 | 89 | 1018.2 |
| 20260507064630 | 45 | 116 | 1.7 | 4.3 | 0.00 | 0.00 | 0.00 | 89 | 1018.2 |
| 20260507064132 | 45 | 107 | 0.9 | 2.6 | 0.00 | 0.00 | 0.00 | 89 | 1018.2 |
| 20260507063632 | 45 | 107 | 0.9 | 2.6 | 0.00 | 0.00 | 0.00 | 89 | 1018.2 |
| 20260507063132 | 45 | 107 | 1.7 | 3.5 | 0.00 | 0.00 | 0.00 | 89 | 1018.2 |
| 20260507062631 | 45 | 117 | 0.9 | 3.5 | 0.00 | 0.00 | 0.00 | 90 | 1018.2 |
| 20260507062132 | 44 | 121 | 0.0 | 2.6 | 0.00 | 0.00 | 0.00 | 90 | 1018.2 |
| 20260507061631 | 44 | 121 | 0.9 | 2.6 | 0.00 | 0.00 | 0.00 | 90 | 1018.1 |
| 20260507061133 | 44 | 87 | 0.9 | 3.5 | 0.00 | 0.00 | 0.00 | 90 | 1018.2 |
| 20260507060632 | 44 | 131 | 0.9 | 3.5 | 0.00 | 0.00 | 0.00 | 90 | 1018.1 |
| 20260507060133 | 44 | 134 | 0.0 | 2.6 | 0.00 | 0.00 | 0.00 | 90 | 1018.2 |
| 20260507055631 | 44 | 110 | 0.0 | 1.7 | 0.00 | 0.00 | 0.00 | 90 | 1018.1 |
| 20260507055132 | 44 | 114 | 0.0 | 1.7 | 0.00 | 0.00 | 0.00 | 90 | 1018.1 |
| 20260507054628 | 44 | 114 | 0.9 | 1.7 | 0.00 | 0.00 | 0.00 | 90 | 1018.0 |
| 20260507054128 | 43 | 113 | 0.0 | 1.7 | 0.00 | 0.00 | 0.00 | 91 | 1018.1 |
| 20260507053628 | 43 | 113 | 0.0 | 1.7 | 0.00 | 0.00 | 0.00 | 90 | 1018.0 |
| 20260507053126 | 43 | 110 | 0.9 | 1.7 | 0.00 | 0.00 | 0.00 | 91 | 1018.0 |
| 20260507052627 | 43 | 99 | 0.0 | 1.7 | 0.00 | 0.00 | 0.00 | 91 | 1018.1 |
| 20260507052127 | 43 | 99 | 0.9 | 1.7 | 0.00 | 0.00 | 0.00 | 91 | 1018.0 |
| 20260507051626 | 43 | 97 | 0.0 | 1.7 | 0.00 | 0.00 | 0.00 | 91 | 1017.9 |
| 20260507051124 | 43 | 97 | 0.0 | 1.7 | 0.00 | 0.00 | 0.00 | 91 | 1018.0 |
| 20260507050847 | 42 | 97 | 0.0 | 1.7 | 0.00 | 0.00 | 0.00 | 90 | 1018.0 |
| 20260507050349 | 42 | 97 | 0.0 | 0.9 | 0.00 | 0.00 | 0.00 | 90 | 1017.9 |
| 20260507045623 | 42 | 99 | 0.0 | 1.7 | 0.00 | 0.00 | 0.00 | 90 | 1017.9 |
| 20260507045125 | 42 | 99 | 0.0 | 1.7 | 0.00 | 0.00 | 0.00 | 90 | 1017.9 |
| 20260507044622 | 42 | 99 | 0.0 | 0.0 | 0.00 | 0.00 | 0.00 | 90 | 1017.9 |
| 20260507044124 | 42 | 99 | 0.0 | 0.0 | 0.00 | 0.00 | 0.00 | 90 | 1018.0 |
| 20260507043624 | 42 | 99 | 0.0 | 0.0 | 0.00 | 0.00 | 0.00 | 90 | 1017.9 |
| 20260507043124 | 42 | 99 | 0.0 | 0.0 | 0.00 | 0.00 | 0.00 | 90 | 1017.9 |
| 20260507042622 | 41 | 99 | 0.0 | 0.0 | 0.00 | 0.00 | 0.00 | 90 | 1018.0 |
| 20260507042124 | 41 | 99 | 0.0 | 0.0 | 0.00 | 0.00 | 0.00 | 89 | 1018.0 |
| 20260507041622 | 41 | 99 | 0.0 | 0.0 | 0.00 | 0.00 | 0.00 | 89 | 1018.0 |
| 20260507041609 | 41 | 99 | 0.0 | 0.0 | 0.00 | 0.00 | 0.00 | 89 | 1018.0 |
| 20260507040621 | 41 | 99 | 0.0 | 0.0 | 0.00 | 0.00 | 0.00 | 89 | 1018.0 |
| 20260507040123 | 41 | 106 | 0.0 | 0.0 | 0.00 | 0.00 | 0.00 | 89 | 1018.0 |
| 20260507035621 | 41 | 106 | 0.0 | 0.0 | 0.00 | 0.00 | 0.00 | 89 | 1018.0 |
| 20260507035122 | 41 | 106 | 0.0 | 0.0 | 0.00 | 0.00 | 0.00 | 88 | 1018.0 |
| 20260507034622 | 41 | 106 | 0.0 | 0.0 | 0.00 | 0.00 | 0.00 | 88 | 1018.0 |
| 20260507034122 | 41 | 106 | 0.0 | 0.0 | 0.00 | 0.00 | 0.00 | 87 | 1018.1 |
| 20260507033621 | 41 | 106 | 0.0 | 0.0 | 0.00 | 0.00 | 0.00 | 87 | 1018.1 |
| 20260507033119 | 41 | 106 | 0.0 | 0.0 | 0.00 | 0.00 | 0.00 | 87 | 1018.0 |
| 20260507032620 | 41 | 106 | 0.0 | 0.0 | 0.00 | 0.00 | 0.00 | 87 | 1018.1 |
| 20260507032122 | 41 | 106 | 0.0 | 0.0 | 0.00 | 0.00 | 0.00 | 87 | 1018.1 |
| 20260507031621 | 42 | 106 | 0.0 | 0.0 | 0.00 | 0.00 | 0.00 | 87 | 1018.0 |
| 20260507031122 | 42 | 106 | 0.0 | 0.9 | 0.00 | 0.00 | 0.00 | 87 | 1018.1 |
| 20260507030620 | 42 | 106 | 0.0 | 0.9 | 0.00 | 0.00 | 0.00 | 86 | 1018.1 |
| 20260507030340 | 42 | 106 | 0.0 | 0.0 | 0.00 | 0.00 | 0.00 | 86 | 1018.0 |
| 20260507030105 | 42 | 106 | 0.0 | 1.7 | 0.00 | 0.00 | 0.00 | 86 | 1018.2 |
| 20260507025121 | 42 | 106 | 0.0 | 1.7 | 0.00 | 0.00 | 0.00 | 86 | 1018.2 |
| 20260507024619 | 43 | 106 | 0.0 | 0.9 | 0.00 | 0.00 | 0.00 | 86 | 1018.2 |
| 20260507024122 | 43 | 106 | 0.0 | 2.6 | 0.00 | 0.00 | 0.00 | 86 | 1018.1 |
| 20260507023841 | 43 | 106 | 0.9 | 2.6 | 0.00 | 0.00 | 0.00 | 86 | 1018.0 |
| 20260507023345 | 43 | 103 | 0.9 | 2.6 | 0.00 | 0.00 | 0.00 | 86 | 1018.1 |
| 20260507022620 | 43 | 104 | 0.0 | 2.6 | 0.00 | 0.00 | 0.00 | 86 | 1018.1 |
| 20260507022345 | 44 | 104 | 1.7 | 2.6 | 0.00 | 0.00 | 0.00 | 85 | 1018.1 |
| 20260507021619 | 44 | 103 | 0.9 | 3.5 | 0.00 | 0.00 | 0.00 | 86 | 1018.1 |
| 20260507021121 | 44 | 100 | 0.9 | 3.5 | 0.00 | 0.00 | 0.00 | 85 | 1018.2 |
| 20260507020619 | 44 | 110 | 0.9 | 2.6 | 0.00 | 0.00 | 0.00 | 85 | 1018.1 |
| 20260507020120 | 44 | 110 | 0.9 | 2.6 | 0.00 | 0.00 | 0.00 | 85 | 1018.1 |
| 20260507015838 | 44 | 107 | 0.0 | 2.6 | 0.00 | 0.00 | 0.00 | 85 | 1018.2 |
| 20260507015120 | 44 | 90 | 0.0 | 1.7 | 0.00 | 0.00 | 0.00 | 85 | 1018.2 |
| 20260507014618 | 44 | 90 | 0.0 | 2.6 | 0.00 | 0.00 | 0.00 | 85 | 1018.2 |
| 20260507014119 | 44 | 90 | 0.9 | 2.6 | 0.00 | 0.00 | 0.00 | 84 | 1018.2 |
| 20260507013839 | 44 | 109 | 0.0 | 0.9 | 0.00 | 0.00 | 0.00 | 84 | 1018.2 |
| 20260507013119 | 44 | 109 | 0.0 | 1.7 | 0.00 | 0.00 | 0.00 | 84 | 1018.2 |
| 20260507012618 | 44 | 109 | 0.0 | 3.5 | 0.00 | 0.00 | 0.00 | 84 | 1018.2 |
| 20260507012336 | 44 | 107 | 0.0 | 3.5 | 0.00 | 0.00 | 0.00 | 84 | 1018.2 |
| 20260507011617 | 44 | 110 | 1.7 | 2.6 | 0.00 | 0.00 | 0.00 | 83 | 1018.3 |
| 20260507011116 | 44 | 111 | 1.7 | 2.6 | 0.00 | 0.00 | 0.00 | 83 | 1018.3 |
| 20260507010616 | 45 | 111 | 0.9 | 2.6 | 0.00 | 0.00 | 0.00 | 83 | 1018.4 |
| 20260507010116 | 45 | 116 | 0.9 | 2.6 | 0.00 | 0.00 | 0.00 | 83 | 1018.3 |
| 20260507005616 | 45 | 111 | 0.9 | 4.3 | 0.00 | 0.00 | 0.00 | 83 | 1018.4 |
| 20260507005116 | 45 | 124 | 0.9 | 4.3 | 0.00 | 0.00 | 0.00 | 83 | 1018.4 |
| 20260507004615 | 45 | 107 | 1.7 | 4.3 | 0.00 | 0.00 | 0.00 | 83 | 1018.4 |
| 20260507004340 | 45 | 120 | 1.7 | 4.3 | 0.00 | 0.00 | 0.00 | 83 | 1018.3 |
| 20260507003835 | 45 | 109 | 0.9 | 4.3 | 0.00 | 0.00 | 0.00 | 83 | 1018.4 |
| 20260507003336 | 45 | 96 | 0.9 | 5.2 | 0.00 | 0.00 | 0.00 | 84 | 1018.5 |
| 20260507002616 | 45 | 118 | 1.7 | 5.2 | 0.00 | 0.00 | 0.00 | 84 | 1018.6 |
| 20260507002115 | 45 | 124 | 1.7 | 4.3 | 0.00 | 0.00 | 0.00 | 84 | 1018.5 |
| 20260507001615 | 45 | 135 | 0.9 | 3.5 | 0.00 | 0.00 | 0.00 | 84 | 1018.5 |
| 20260507001114 | 45 | 123 | 1.7 | 3.5 | 0.00 | 0.00 | 0.00 | 84 | 1018.5 |
| 20260507000615 | 45 | 118 | 1.7 | 3.5 | 0.00 | 0.00 | 0.00 | 84 | 1018.5 |
| 20260507000114 | 45 | 118 | 1.7 | 3.5 | 0.00 | 0.00 | 0.00 | 84 | 1018.5 |
| 20260506235614 | 45 | 118 | 0.9 | 3.5 | 0.00 | 0.00 | 0.00 | 84 | 1018.5 |
| 20260506235114 | 45 | 111 | 0.9 | 2.6 | 0.00 | 0.00 | 0.00 | 85 | 1018.5 |
| 20260506234614 | 45 | 111 | 0.9 | 2.6 | 0.00 | 0.00 | 0.00 | 84 | 1018.6 |
| 20260506234114 | 45 | 113 | 0.9 | 2.6 | 0.00 | 0.00 | 0.00 | 85 | 1018.5 |
| 20260506233615 | 45 | 113 | 0.0 | 1.7 | 0.00 | 0.00 | 0.00 | 85 | 1018.5 |
| 20260506233317 | 45 | 109 | 1.7 | 2.6 | 0.00 | 0.00 | 0.00 | 85 | 1018.5 |
| 20260506233302 | 45 | 113 | 0.0 | 2.6 | 0.00 | 0.00 | 0.00 | 84 | 1018.5 |
| 20260506232113 | 45 | 104 | 0.9 | 4.3 | 0.00 | 0.00 | 0.00 | 84 | 1018.6 |
| 20260506231613 | 45 | 99 | 2.6 | 4.3 | 0.00 | 0.00 | 0.00 | 84 | 1018.5 |
| 20260506231114 | 45 | 104 | 0.9 | 2.6 | 0.00 | 0.00 | 0.00 | 83 | 1018.5 |
| 20260506230613 | 45 | 109 | 0.0 | 1.7 | 0.00 | 0.00 | 0.00 | 83 | 1018.6 |
| 20260506230113 | 45 | 109 | 0.0 | 2.6 | 0.00 | 0.00 | 0.00 | 83 | 1018.5 |
| 20260506225837 | 45 | 109 | 1.7 | 2.6 | 0.00 | 0.00 | 0.00 | 82 | 1018.5 |
| 20260506225113 | 46 | 114 | 0.9 | 1.7 | 0.00 | 0.00 | 0.00 | 82 | 1018.4 |
| 20260506224612 | 46 | 114 | 0.9 | 1.7 | 0.00 | 0.00 | 0.00 | 82 | 1018.5 |
| 20260506224114 | 46 | 116 | 0.0 | 2.6 | 0.00 | 0.00 | 0.00 | 82 | 1018.4 |
| 20260506223614 | 46 | 116 | 0.0 | 2.6 | 0.00 | 0.00 | 0.00 | 82 | 1018.4 |
| 20260506223114 | 46 | 111 | 0.9 | 2.6 | 0.00 | 0.00 | 0.00 | 82 | 1018.4 |
| 20260506222838 | 46 | 111 | 0.9 | 2.6 | 0.00 | 0.00 | 0.00 | 82 | 1018.4 |
| 20260506222114 | 46 | 113 | 0.9 | 2.6 | 0.00 | 0.00 | 0.00 | 82 | 1018.3 |
| 20260506221839 | 46 | 118 | 1.7 | 2.6 | 0.00 | 0.00 | 0.00 | 82 | 1018.3 |
| 20260506221113 | 46 | 123 | 0.9 | 2.6 | 0.00 | 0.00 | 0.00 | 82 | 1018.3 |
| 20260506220612 | 46 | 123 | 0.9 | 3.5 | 0.00 | 0.00 | 0.00 | 81 | 1018.3 |
| 20260506220113 | 46 | 123 | 0.0 | 3.5 | 0.00 | 0.00 | 0.00 | 81 | 1018.3 |
| 20260506215612 | 47 | 104 | 0.9 | 1.7 | 0.00 | 0.00 | 0.00 | 81 | 1018.3 |
| 20260506215113 | 47 | 104 | 0.0 | 1.7 | 0.00 | 0.00 | 0.00 | 80 | 1018.2 |
| 20260506214612 | 47 | 97 | 0.0 | 2.6 | 0.00 | 0.00 | 0.00 | 80 | 1018.1 |
| 20260506214113 | 47 | 97 | 0.9 | 2.6 | 0.00 | 0.00 | 0.00 | 80 | 1018.1 |
| 20260506213613 | 47 | 94 | 0.9 | 1.7 | 0.00 | 0.00 | 0.00 | 79 | 1018.2 |
| 20260506213339 | 47 | 94 | 0.9 | 2.6 | 0.00 | 0.00 | 0.00 | 79 | 1018.1 |
| 20260506212821 | 47 | 86 | 0.0 | 2.6 | 0.00 | 0.00 | 0.00 | 79 | 1018.1 |
| 20260506212806 | 47 | 94 | 1.7 | 2.6 | 0.00 | 0.00 | 0.00 | 79 | 1018.1 |
| 20260506211610 | 47 | 86 | 0.9 | 2.6 | 0.00 | 0.00 | 0.00 | 79 | 1018.2 |
| 20260506211110 | 47 | 63 | 0.9 | 2.6 | 0.00 | 0.00 | 0.00 | 79 | 1018.2 |
| 20260506210610 | 47 | 99 | 0.9 | 2.6 | 0.00 | 0.00 | 0.00 | 79 | 1018.1 |
| 20260506210110 | 47 | 92 | 0.9 | 3.5 | 0.00 | 0.00 | 0.00 | 78 | 1018.1 |
| 20260506205611 | 47 | 71 | 1.7 | 3.5 | 0.00 | 0.00 | 0.00 | 78 | 1018.1 |
| 20260506205109 | 47 | 86 | 1.7 | 3.5 | 0.00 | 0.00 | 0.00 | 78 | 1018.0 |
| 20260506204840 | 47 | 104 | 0.9 | 2.6 | 0.00 | 0.00 | 0.00 | 78 | 1018.1 |
| 20260506204111 | 47 | 93 | 0.9 | 2.6 | 0.00 | 0.00 | 0.00 | 77 | 1018.0 |
| 20260506203612 | 47 | 110 | 0.9 | 1.7 | 0.00 | 0.00 | 0.00 | 77 | 1018.0 |